Location: Newark
(59.4564°N, 26.6917°E)
Time: 11:58:09
(UTC+00:00)

Altair - Visible Passes

Search period start: 14 November 2019 00:00
Search period end: 24 November 2019 00:00
Orbit: 1502 x 1682 km, 47.2° (Epoch: 13 November)

Date Brightness Start Highest point End Pass type
(mag) Time Alt. Az. Time Alt. Az. Time Alt. Az.
14 Nov 9.1 02:09:55 10° S 02:16:17 21° SE 02:22:42 10° E visible
14 Nov 8.6 04:10:46 10° SW 04:18:50 36° SSE 04:27:06 10° ESE visible
15 Nov 9.1 01:46:17 13° S 01:51:18 20° SE 01:57:28 10° E visible
15 Nov 8.6 03:45:48 10° SW 03:53:48 35° SSE 04:01:59 10° ESE visible
16 Nov 9.1 01:22:54 15° SSE 01:26:20 19° SE 01:32:12 10° E visible
16 Nov 8.6 03:20:57 10° SW 03:28:46 35° SSE 03:36:51 10° ESE visible
17 Nov 9.1 00:59:27 17° SSE 01:01:22 18° SE 01:06:54 10° E visible
17 Nov 8.5 02:57:30 16° SSW 03:03:44 34° SSE 03:11:44 10° E visible
17 Nov 8.5 04:58:30 10° WSW 05:06:45 39° S 05:15:12 10° ESE visible
18 Nov 9.1 00:35:56 16° SE 00:36:25 16° SE 00:41:34 10° E visible
18 Nov 8.5 02:33:59 21° SSW 02:38:43 33° SSE 02:46:36 10° E visible
18 Nov 8.4 04:33:27 10° WSW 04:41:42 39° S 04:50:08 10° ESE visible
19 Nov 9.2 00:12:22 15° SE 00:12:22 15° SE 00:16:12 10° ESE visible
19 Nov 8.5 02:10:24 25° S 02:13:42 32° SSE 02:21:29 10° E visible
19 Nov 8.4 04:08:26 10° WSW 04:16:40 39° S 04:25:04 10° ESE visible
19 Nov 9.4 23:48:45 13° ESE 23:48:45 13° ESE 23:50:45 10° ESE visible
20 Nov 8.4 01:46:47 28° S 01:48:41 30° SSE 01:56:20 10° E visible
20 Nov 8.3 03:44:49 15° WSW 03:51:37 39° S 04:00:00 10° ESE visible
20 Nov 9.5 23:25:06 10° ESE 23:25:06 10° ESE 23:25:13 10° ESE visible
21 Nov 8.4 01:23:07 29° SSE 01:23:40 29° SSE 01:31:12 10° E visible
21 Nov 8.2 03:21:09 21° SW 03:26:34 39° S 03:34:55 10° ESE visible
21 Nov 8.6 05:21:47 10° W 05:29:34 32° SSW 05:37:31 10° SE visible
22 Nov 8.6 00:59:26 28° SE 00:59:26 28° SE 01:06:04 10° E visible
22 Nov 8.2 02:57:28 27° SW 03:01:31 39° S 03:09:50 10° ESE visible
22 Nov 8.5 04:56:41 10° W 05:04:32 33° SSW 05:12:32 10° SE visible
23 Nov 8.7 00:35:44 25° SE 00:35:44 25° SE 00:40:55 10° E visible
23 Nov 8.1 02:33:45 32° SSW 02:36:29 38° S 02:44:46 10° ESE visible
23 Nov 8.4 04:31:47 11° WSW 04:39:31 34° SSW 04:47:33 10° SE visible
